Worland, WY

2:38 PM MDT on June 25, 2017 (GMT -0600)
Worland Municipal

Weather History for KWRL - January, 2014

Change the Weather History Date:

Thursday, January 9, 2014

  Actual Average Record
Temperature  
Mean Temperature 13 °F 16 °F  
Max Temperature 23 °F 30 °F 61 °F (1995)
Min Temperature 2 °F 3 °F -31 °F (1973)
Degree Days  
Heating Degree Days 52 49  
Month to date heating degree days 484 441  
Since 1 July heating degree days 3902 3804  
Cooling Degree Days 0 0  
Month to date cooling degree days 0 0  
Year to date cooling degree days 0 0  
Moisture  
Dew Point 10 °F    
Average Humidity 85    
Maximum Humidity 96    
Minimum Humidity 73    
Precipitation  
Precipitation T in 0.01 in 0.17 in (1993)
Month to date precipitation 0.13 0.07  
Year to date precipitation 0.13 0.07  
Sea Level Pressure  
Sea Level Pressure 29.89 in    
Wind  
Wind Speed 3 mph (South)    
Max Wind Speed 13 mph    
Max Gust Speed 13 mph    
Visibility 10 miles    
Events      
T = Trace of Precipitation, MM = Missing Value Source: NWS Daily Summary

Daily Weather History Graph

Daily Weather History Graph

Search for Another Location

Airport or City:

Trip Planner

Search our weather history database for the weather conditions in past years. The results will help you decide how hot, cold, wet, or windy it might be!

Date:

Astronomy

Jan. 09, 2014 Rise Set
Actual Time 7:45 AM MST 4:52 PM MST
Civil Twilight 7:13 AM MST 5:25 PM MST
Nautical Twilight 6:37 AM MST 6:01 PM MST
Astronomical Twilight 6:02 AM MST 6:36 PM MST
Moon 12:25 PM MST (1/9) 1:51 AM MST (1/9)
Length of Visible Light 10h 12m
Length of Day
9h 07m
Waxing Gibbous, 66% of the Moon is Illuminated
Jan 9
Waxing Gibbous
Jan 15
Full
Jan 23
Last Quarter
Jan 30
New
Feb 6
First Quarter

Hourly Weather History & Observations

Time (MST) Temp. Windchill Dew Point Humidity Pressure Visibility Wind Dir Wind Speed Gust Speed Precip Events Conditions
12:53 AM 5.0 °F -8.1 °F 3.0 °F 92% 30.03 in 10.0 mi South 8.1 mph - N/A   Clear
1:53 AM 3.9 °F -5.3 °F 1.0 °F 88% 30.00 in 10.0 mi SSW 4.6 mph - N/A   Clear
2:53 AM 3.9 °F -3.4 °F 1.0 °F 88% 30.01 in 10.0 mi South 3.5 mph - N/A   Clear
3:53 AM 3.9 °F - 1.0 °F 88% 30.00 in 10.0 mi Calm Calm - N/A   Clear
4:53 AM 10.9 °F 0.2 °F 8.1 °F 88% 29.96 in 10.0 mi South 6.9 mph - N/A   Clear
5:53 AM 9.0 °F - 6.1 °F 88% 29.95 in 10.0 mi Calm Calm - N/A   Clear
6:53 AM 10.0 °F -1.9 °F 7.0 °F 87% 29.94 in 10.0 mi SSW 8.1 mph - N/A   Clear
7:53 AM 12.9 °F 2.6 °F 9.0 °F 84% 29.92 in 10.0 mi South 6.9 mph - N/A   Clear
8:53 AM 8.1 °F - 6.1 °F 92% 29.94 in 10.0 mi Calm Calm - N/A   Clear
9:53 AM 10.9 °F - 8.1 °F 88% 29.92 in 10.0 mi Calm Calm - 0.00 in   Clear
10:53 AM 15.1 °F - 10.9 °F 84% 29.88 in 10.0 mi Calm Calm - N/A   Clear
11:53 AM 19.0 °F - 12.9 °F 77% 29.86 in 10.0 mi Calm Calm - N/A   Partly Cloudy
12:53 PM 19.9 °F - 12.9 °F 74% 29.81 in 10.0 mi Calm Calm - N/A   Scattered Clouds
1:53 PM 19.9 °F - 14.0 °F 78% 29.79 in 10.0 mi Calm Calm - N/A   Clear
2:53 PM 21.0 °F - 15.1 °F 78% 29.78 in 10.0 mi Calm Calm - N/A   Clear
4:53 PM 19.0 °F 13.9 °F 14.0 °F 81% 29.80 in 10.0 mi South 3.5 mph - N/A   Scattered Clouds
5:53 PM 19.9 °F 13.4 °F 15.1 °F 81% 29.81 in 10.0 mi South 4.6 mph - N/A   Overcast
6:53 PM 19.9 °F 13.4 °F 16.0 °F 85% 29.82 in 10.0 mi South 4.6 mph - 0.00 in   Overcast
7:53 PM 21.9 °F - 16.0 °F 78% 29.81 in 10.0 mi Calm Calm - N/A   Partly Cloudy
8:53 PM 19.0 °F - 15.1 °F 85% 29.87 in 10.0 mi Calm Calm - N/A   Overcast
9:53 PM 21.0 °F - 16.0 °F 81% 29.86 in 10.0 mi Calm Calm - N/A   Overcast
10:53 PM 19.9 °F - 16.0 °F 85% 29.86 in 10.0 mi Calm Calm - N/A   Mostly Cloudy
11:53 PM 16.0 °F 3.6 °F 12.0 °F 84% 29.84 in 10.0 mi South 10.4 mph - N/A   Clear